Склад

Россия / Республика Саха (Якутия)     71°54′33″N   123°34′18″E
темп.,
°C
ветер,
м/с
пор.,
м/с
влажн.,
%
обл.,
%
осадки,
мм/ч
давл.,
гПа
погр.,
м
27 февраля, сб
сб2700:00−33вюв0090100 0.0 103319
03:00−32з0089100 0.0 103219
06:00−31юз0088100 0.0 103119
09:00−31зюз0088100 0.0 103119
12:00−29ююз0096100 0.1 1031124
15:00−28вюв1196100 0.3 1029132
18:00−29вюв1198100 0.1 102919
21:00−32вюв1110094 0.1 102919
28 февраля, вс
вс2800:00−32в229998 0.1 102819
03:00−36в1110089 0.1 102719
06:00−36св111005 0.0 102719
09:00−36с11983 0.0 102619
12:00−32ссв129137 0.0 102619
15:00−32ссв239054 0.0 102632
18:00−34ссв239096 0.0 102619
21:00−35ссв239282 0.0 102719
1 марта, пн
пн100:00−36ссв239450 0.0 102619
03:00−36св229346 0.0 102619
06:00−37св229263 0.0 102719
09:00−38св229465 0.0 102719
12:00−35всв12936 0.0 102649
15:00−35всв229233 0.0 102623
18:00−38в229348 0.0 102719
21:00−38в229260 0.0 102719
2 марта, вт
вт200:00−39в229260 0.0 102718
03:00−39в229266 0.0 102718
06:00−39в229280 0.0 102818
09:00−40в119248 0.0 102818
12:00−37в118921 0.0 102844
15:00−36всв119041 0.0 102919
18:00−39ссв119429 0.0 103019
21:00−40ссв009520 0.0 103018
3 марта, ср
ср300:00−39сз009460 0.0 103018
03:00−40сз009663 0.0 103018
06:00−39сз019770 0.0 103018
09:00−39с009978 0.0 103019
12:00−35с019553 0.0 102932
15:00−35ссв119351 0.0 102819
18:00−37ссв229610 0.0 102819
21:00−37ссв22965 0.0 102719